Weather History for KMCJ - November, 2012

Change the Weather History Date:

Sunday, November 25, 2012

  Actual Average (KHOU) Record (KHOU)
Temperature  
Mean Temperature 62 °F 59 °F  
Max Temperature 75 °F 69 °F 86 °F (1967)
Min Temperature 50 °F 49 °F 29 °F (1950)
Degree Days  
Heating Degree Days 2 7  
Month to date heating degree days 114  
Since 1 July heating degree days 144  
Growing Degree Days 12 (Base 50)    
Moisture  
Dew Point 51 °F    
Average Humidity 66    
Maximum Humidity 94    
Minimum Humidity 44    
Precipitation  
Precipitation 0.00 in 0.14 in 1.70 in (1987)
Month to date precipitation 3.62  
Year to date precipitation 45.31  
Sea Level Pressure  
Sea Level Pressure 30.03 in    
Wind  
Wind Speed 6 mph (South)    
Max Wind Speed 16 mph    
Max Gust Speed 20 mph    
Visibility 10 miles    
Events      
T = Trace of Precipitation, MM = Missing Value Source: NWS Daily Summary

Daily Weather History Graph

Daily Weather History Graph

Search for Another Location

Airport or City:

Trip Planner

Search our weather history database for the weather conditions in past years. The results will help you decide how hot, cold, wet, or windy it might be!

Date:

Astronomy

Nov. 25, 2012 Rise Set
Actual Time 6:54 AM CST 5:22 PM CST
Civil Twilight 6:29 AM CST 5:48 PM CST
Nautical Twilight 5:59 AM CST 6:17 PM CST
Astronomical Twilight 5:31 AM CST 6:46 PM CST
Moon 3:33 PM CST (11/25) 4:18 AM CST (11/25)
Length of Visible Light 11h 19m
Length of Day
10h 27m
Waxing Gibbous, 93% of the Moon is Illuminated
Nov 25
Waxing Gibbous
Nov 28
Full
Dec 6
Last Quarter
Dec 13
New
Dec 19
First Quarter

Hourly Weather History & Observations

Time (CST) Temp. Dew Point Humidity Pressure Visibility Wind Dir Wind Speed Gust Speed Precip Events Conditions
12:15 AM 53.6 °F 39.2 °F 58% 30.14 in 10.0 mi South 6.9 mph - N/A   Clear
12:35 AM 53.6 °F 39.2 °F 58% 30.13 in 10.0 mi South 8.1 mph - N/A   Clear
12:55 AM 53.6 °F 41.0 °F 62% 30.12 in 10.0 mi SSW 4.6 mph - N/A   Clear
1:15 AM 53.6 °F 41.0 °F 62% 30.12 in 10.0 mi SSW 6.9 mph - N/A   Clear
1:35 AM 53.6 °F 41.0 °F 62% 30.11 in 10.0 mi South 6.9 mph - N/A   Clear
1:55 AM 53.6 °F 41.0 °F 62% 30.11 in 10.0 mi South 8.1 mph - N/A   Clear
2:15 AM 53.6 °F 41.0 °F 62% 30.10 in 10.0 mi South 5.8 mph - N/A   Clear
2:35 AM 53.6 °F 41.0 °F 62% 30.10 in 10.0 mi South 5.8 mph - N/A   Clear
2:55 AM 53.6 °F 41.0 °F 62% 30.09 in 10.0 mi SSW 4.6 mph - N/A   Clear
3:15 AM 53.6 °F 41.0 °F 62% 30.09 in 10.0 mi SSW 3.5 mph - N/A   Clear
3:35 AM 53.6 °F 41.0 °F 62% 30.09 in 10.0 mi SW 3.5 mph - N/A   Clear
3:55 AM 53.6 °F 42.8 °F 67% 30.09 in 10.0 mi SSW 3.5 mph - N/A   Clear
4:15 AM 53.6 °F 42.8 °F 67% 30.08 in 10.0 mi SW 4.6 mph - N/A   Clear
4:35 AM 53.6 °F 42.8 °F 67% 30.08 in 10.0 mi Calm Calm - N/A   Clear
4:55 AM 53.6 °F 42.8 °F 67% 30.08 in 10.0 mi Calm Calm - N/A   Clear
5:15 AM 53.6 °F 42.8 °F 67% 30.08 in 10.0 mi Calm Calm - N/A   Clear
5:35 AM 53.6 °F 42.8 °F 67% 30.08 in 10.0 mi Calm Calm - N/A   Clear
5:55 AM 53.6 °F 42.8 °F 67% 30.08 in 10.0 mi South 3.5 mph - N/A   Clear
6:15 AM 53.6 °F 42.8 °F 67% 30.08 in 10.0 mi Calm Calm - N/A   Clear
6:35 AM 53.6 °F 42.8 °F 67% 30.08 in 10.0 mi Calm Calm - N/A   Clear
6:55 AM 50.0 °F 41.0 °F 71% 30.08 in 10.0 mi Calm Calm - N/A   Clear
7:15 AM 50.0 °F 41.0 °F 71% 30.08 in 10.0 mi Calm Calm - N/A   Clear
7:35 AM 51.8 °F 41.0 °F 67% 30.09 in 10.0 mi East 5.8 mph - N/A   Clear
7:55 AM 53.6 °F 41.0 °F 62% 30.09 in 9.0 mi East 4.6 mph - N/A   Clear
8:15 AM 55.4 °F 42.8 °F 63% 30.10 in 7.0 mi SE 5.8 mph - N/A   Clear
8:35 AM 55.4 °F 44.6 °F 67% 30.10 in 8.0 mi SE 3.5 mph - N/A   Clear
8:55 AM 59.0 °F 46.4 °F 63% 30.11 in 8.0 mi SE 4.6 mph - N/A   Clear
9:15 AM 60.8 °F 46.4 °F 59% 30.11 in 9.0 mi SSE 5.8 mph - N/A   Clear
9:35 AM 62.6 °F 48.2 °F 59% 30.11 in 10.0 mi SE 5.8 mph - N/A   Clear
9:55 AM 64.4 °F 48.2 °F 56% 30.11 in 10.0 mi SSE 4.6 mph - N/A   Clear
10:15 AM 64.4 °F 50.0 °F 59% 30.11 in 10.0 mi South 8.1 mph - N/A   Clear
10:35 AM 68.0 °F 50.0 °F 52% 30.10 in 10.0 mi SSE 8.1 mph - N/A   Clear
10:55 AM 68.0 °F 51.8 °F 56% 30.09 in 10.0 mi South 8.1 mph - N/A   Clear
11:15 AM 68.0 °F 53.6 °F 60% 30.08 in 10.0 mi South 9.2 mph - N/A   Clear
11:35 AM 69.8 °F 51.8 °F 53% 30.07 in 10.0 mi South 8.1 mph - N/A   Clear
11:55 AM 69.8 °F 51.8 °F 53% 30.05 in 10.0 mi South 10.4 mph - N/A   Clear
12:15 PM 71.6 °F 51.8 °F 50% 30.04 in 10.0 mi South 9.2 mph - N/A   Clear
12:35 PM 73.4 °F 51.8 °F 47% 30.03 in 10.0 mi South 10.4 mph - N/A   Clear
12:55 PM 73.4 °F 53.6 °F 50% 30.02 in 10.0 mi SSW 4.6 mph - N/A   Clear
1:15 PM 75.2 °F 51.8 °F 44% 30.01 in 10.0 mi WSW 4.6 mph - N/A   Clear
1:35 PM 75.2 °F 53.6 °F 47% 30.00 in 10.0 mi SSW 4.6 mph - N/A   Scattered Clouds
1:55 PM 75.2 °F 53.6 °F 47% 29.99 in 10.0 mi South 16.1 mph - N/A   Mostly Cloudy
2:15 PM 73.4 °F 55.4 °F 53% 29.98 in 10.0 mi South 10.4 mph 18.4 mph N/A   Mostly Cloudy
2:35 PM 73.4 °F 55.4 °F 53% 29.98 in 10.0 mi South 6.9 mph - N/A   Partly Cloudy
2:55 PM 73.4 °F 55.4 °F 53% 29.96 in 10.0 mi South 11.5 mph 17.3 mph N/A   Scattered Clouds
3:15 PM 73.4 °F 55.4 °F 53% 29.96 in 10.0 mi South 10.4 mph 17.3 mph N/A   Scattered Clouds
3:35 PM 73.4 °F 55.4 °F 53% 29.96 in 10.0 mi South 13.8 mph - N/A   Mostly Cloudy
3:55 PM 73.4 °F 57.2 °F 57% 29.96 in 10.0 mi South 13.8 mph 19.6 mph N/A   Overcast
4:15 PM 73.4 °F 57.2 °F 57% 29.96 in 10.0 mi SSE 12.7 mph 18.4 mph N/A   Overcast
4:35 PM 73.4 °F 57.2 °F 57% 29.96 in 10.0 mi South 13.8 mph 19.6 mph N/A   Mostly Cloudy
4:55 PM 71.6 °F 59.0 °F 64% 29.96 in 10.0 mi South 12.7 mph - N/A   Scattered Clouds
5:15 PM 69.8 °F 59.0 °F 68% 29.96 in 10.0 mi South 12.7 mph 16.1 mph N/A   Clear
5:35 PM 69.8 °F 59.0 °F 68% 29.95 in 10.0 mi SSE 9.2 mph - N/A   Clear
5:55 PM 68.0 °F 59.0 °F 73% 29.95 in 10.0 mi SSE 10.4 mph 16.1 mph N/A   Clear
6:15 PM 68.0 °F 59.0 °F 73% 29.96 in 10.0 mi SSE 10.4 mph - N/A   Scattered Clouds
6:35 PM 68.0 °F 59.0 °F 73% 29.96 in 10.0 mi SSE 9.2 mph - N/A   Mostly Cloudy
6:55 PM 68.0 °F 59.0 °F 73% 29.96 in 10.0 mi SSE 9.2 mph - N/A   Mostly Cloudy
7:15 PM 66.2 °F 59.0 °F 78% 29.96 in 10.0 mi SSE 9.2 mph - N/A   Scattered Clouds
7:35 PM 66.2 °F 59.0 °F 78% 29.97 in 10.0 mi SSE 10.4 mph - N/A   Partly Cloudy
7:55 PM 66.2 °F 59.0 °F 78% 29.97 in 10.0 mi SE 6.9 mph - N/A   Partly Cloudy
8:15 PM 64.4 °F 59.0 °F 83% 29.97 in 10.0 mi SE 9.2 mph - N/A   Partly Cloudy
8:35 PM 64.4 °F 59.0 °F 83% 29.96 in 10.0 mi SE 9.2 mph - N/A   Clear
8:55 PM 64.4 °F 60.8 °F 88% 29.97 in 10.0 mi SE 8.1 mph - N/A   Clear
9:15 PM 64.4 °F 60.8 °F 88% 29.97 in 10.0 mi SSE 10.4 mph - N/A   Clear
9:35 PM 64.4 °F 60.8 °F 88% 29.97 in 10.0 mi SSE 8.1 mph - N/A   Clear
9:55 PM 64.4 °F 60.8 °F 88% 29.97 in 9.0 mi SSE 6.9 mph - N/A   Clear
10:15 PM 64.4 °F 60.8 °F 88% 29.97 in 8.0 mi SE 5.8 mph - N/A   Clear
10:35 PM 64.4 °F 60.8 °F 88% 29.96 in 7.0 mi SE 8.1 mph - N/A   Clear
10:55 PM 64.4 °F 62.6 °F 94% 29.96 in 7.0 mi SE 8.1 mph - N/A   Clear
11:15 PM 64.4 °F 62.6 °F 94% 29.96 in 6.0 mi SSE 8.1 mph - N/A   Clear
11:35 PM 64.4 °F 62.6 °F 94% 29.95 in 7.0 mi SSE 10.4 mph - N/A   Clear
11:55 PM 64.4 °F 62.6 °F 94% 29.95 in 5.0 mi SSE 10.4 mph - N/A   Clear